Location: Starlight Observatory
(38.4029°N, 85.8936°W)
Time: 20:36:12
(UTC-05:00)

Iridium 62 - Visible Passes

Search period start: 22 November 2017 00:00
Search period end: 02 December 2017 00:00
Orbit: 776 x 779 km, 86.4° (Epoch: 22 November)

Date Brightness Start Highest point End Pass type
(mag) Time Alt. Az. Time Alt. Az. Time Alt. Az.
22 Nov 8.8 05:54:25 10° ESE 05:57:02 14° ENE 05:59:40 10° NE visible
22 Nov 6.5 18:03:46 10° NNE 18:08:27 32° E 18:13:06 10° SE visible
22 Nov 7.9 19:44:43 10° NNW 19:48:59 26° W 19:53:14 10° SW visible
23 Nov 6.2 06:58:26 10° S 07:03:37 72° E 07:08:49 10° N visible
23 Nov 6.8 19:10:38 10° NNW 19:15:39 48° W 19:20:38 10° SSW visible
24 Nov 7.4 06:25:26 10° SSE 06:30:12 38° E 06:35:00 10° NNE visible
24 Nov 5.8 18:36:57 10° N 18:42:12 89° E 18:47:25 10° S visible
25 Nov 8.4 05:53:09 10° SE 05:56:55 21° E 06:00:42 10° NE visible
25 Nov 6.1 18:03:35 10° N 18:08:37 47° E 18:13:38 10° SSE visible
25 Nov 8.5 19:45:28 10° NW 19:48:53 18° W 19:52:19 10° WSW visible
26 Nov 9.0 05:22:42 10° E 05:23:45 11° ENE 05:24:50 10° ENE visible
26 Nov 5.8 06:58:29 10° S 07:03:41 78° W 07:08:56 10° N visible
26 Nov 7.6 19:11:01 10° NNW 19:15:38 33° W 19:20:15 10° SSW visible
27 Nov 6.6 06:25:08 10° SSE 06:30:13 56° E 06:35:19 10° NNE visible
27 Nov 6.3 18:37:06 10° N 18:42:15 62° W 18:47:23 10° SSW visible
28 Nov 7.8 05:52:24 10° SE 05:56:51 30° E 06:01:20 10° NNE visible
28 Nov 5.8 18:03:32 10° N 18:08:46 70° E 18:13:57 10° S visible
28 Nov 8.9 19:46:50 10° NW 19:48:46 12° WNW 19:50:42 10° W visible
29 Nov 8.7 05:20:32 10° ESE 05:23:37 16° E 05:26:43 10° NE visible
29 Nov 6.0 06:58:44 10° SSW 07:03:49 53° W 07:08:55 10° N visible
29 Nov 8.2 19:11:34 10° NNW 19:15:35 23° W 19:19:35 10° SW visible
30 Nov 5.9 06:25:04 10° S 06:30:16 82° E 06:35:30 10° N visible
30 Nov 7.1 18:37:22 10° NNW 18:42:17 42° W 18:47:09 10° SSW visible
01 Dec 7.0 05:51:56 10° SSE 05:56:49 43° E 06:01:45 10° NNE visible
01 Dec 6.0 18:03:37 10° N 18:08:51 80° W 18:14:03 10° S visible
